This is the latest recevied weather packets stored in our database for station/object KO4IDC-13. If no packets are shown the sender has not sent any weather packets the latest 10 day(s).
| Time | Temp. | Humidity | Pressure | Rain* | Wind** | Luminosity | Snow |
|---|---|---|---|---|---|---|---|
| 1777939698 | 25.56° C | 40% | 1007.7 hPa | 0 mm | - | 25 W/m² | - |
| 1777939395 | 25.56° C | 39% | 1007.7 hPa | 0 mm | - | 34 W/m² | - |
| 1777939092 | 25.56° C | 39% | 1007.6 hPa | 0 mm | - | 45 W/m² | - |
| 1777938788 | 25.56° C | 39% | 1007.8 hPa | 0 mm | - | 55 W/m² | - |
| 1777938485 | 25.56° C | 39% | 1007.8 hPa | 0 mm | - | 48 W/m² | - |
| 1777938183 | 25.56° C | 39% | 1008.1 hPa | 0 mm | - | 53 W/m² | - |
| 1777937879 | 25.56° C | 38% | 1008.4 hPa | 0 mm | - | 65 W/m² | - |
| 1777937575 | 25.56° C | 38% | 1008.5 hPa | 0 mm | - | 61 W/m² | - |
| 1777937272 | 25.56° C | 38% | 1008.5 hPa | 0 mm | - | 60 W/m² | - |
| 1777936969 | 25.56° C | 39% | 1008.5 hPa | 0 mm | - | 79 W/m² | - |
| 1777936666 | 25.56° C | 39% | 1008.6 hPa | 0 mm | - | 82 W/m² | - |
| 1777936362 | 26.11° C | 39% | 1008.8 hPa | 0 mm | - | 72 W/m² | - |
| 1777936058 | 26.11° C | 38% | 1008.8 hPa | 0 mm | - | 75 W/m² | - |
| 1777935757 | 26.67° C | 38% | 1009 hPa | 0 mm | - | 101 W/m² | - |
| 1777935455 | 26.11° C | 37% | 1009.4 hPa | 0 mm | - | 156 W/m² | - |
| 1777935151 | 26.11° C | 37% | 1009.4 hPa | 0 mm | - | 140 W/m² | - |
| 1777934849 | 26.11° C | 38% | 1009.6 hPa | 0 mm | - | 122 W/m² | - |
| 1777934546 | 26.11° C | 38% | 1009.6 hPa | 0 mm | - | 110 W/m² | - |
| 1777934242 | 26.11° C | 39% | 1009.7 hPa | 0 mm | - | 129 W/m² | - |
| 1777933937 | 26.11° C | 38% | 1009.6 hPa | 0 mm | - | 141 W/m² | - |
| 1777933635 | 26.11° C | 39% | 1009.8 hPa | 0 mm | - | 141 W/m² | - |
| 1777933332 | 26.11° C | 38% | 1010.1 hPa | 0 mm | - | 129 W/m² | - |
| 1777933029 | 26.11° C | 37% | 1010.3 hPa | 0 mm | - | 130 W/m² | - |
| 1777932726 | 26.11° C | 37% | 1010.1 hPa | 0 mm | - | 131 W/m² | - |
| 1777932422 | 26.11° C | 37% | 1010.3 hPa | 0 mm | - | 134 W/m² | - |
* Rain latest hour (hover to see other rain measurements)
** Current wind speed in m/s (hover to see current wind gust speed)